sat.trackr.live / text

‹ back to catalog

STARLINK-5716

NORAD 56504 · 2023-065B

PAYLOAD ACTIVE UNKNOWN

§ Identity

Operator
Country
US
Launch date
2023-05-14
Launch site
AFETR
Launch vehicle
Mass (kg)
RCS (m²)

Purposes: comms

External: N2YO · Heavens-Above · Gunter

§ Orbital elements

Epoch: 2026-05-25T00:28:33.961728Z

Period
94.27 min
Inclination
43.0004°
Eccentricity
0.0000853
Mean motion
15.27579802 rev/d
Perigee alt
482.5 km
Apogee alt
483.6 km
Semi-major
6,861.2 km
B*
1.7920e-6
RAAN
141.3965°
Arg perigee
261.1224°
Mean anomaly
98.9531°
Rev number
16,827

§ Raw data

STARLINK-57161 56504U 23065B   26145.01983752 -.00000213  00000+0  17920-5 0  99992 56504  43.0004 141.3965 0000853 261.1224  98.9531 15.27579802168271

JSON: /api/v1/satellites/56504 · /tle

For live sub-satellite position, see the globe view (requires WebGL).

§ Visibility from observer

Set your observer location to see the next 7 days of passes ≥ 10°. The values pass through the URL so the page stays shareable.

No JS? Fill the form by hand. The geolocation button needs JavaScript.